[[{"header":{"parameterUnit":"m.s-1","parameterCategory":1,"la1":30.2991,"la2":30.254,"lo1":-89.0895,"lo2":-89.0444,"dy":0.0017,"dx":0.0017,"nx":28,"ny":28,"refTime":"2025-08-29T09:00:00:Z","depth":0,"parameterNumber":2,"parameterNumberName":"U-component_of_WINDS"},"data":[0,0,0,0,0,0,0,0,0,0,0,0,0,0,0,0,0,0,0,0,0,0,0,0,0,0,0,0,0,0,0,0,0,0,0,0,0,0,0,0,0,0,0,0,0,0,0,0,0,0,0,0,0,0,0,0,0,0,-5.2415,-5.2415,0,-5.2474,-5.2474,-5.2475,-5.2341,-5.2337,-5.2333,-5.2328,-5.239,-5.2396,-5.2401,0,0,0,0,0,0,0,0,0,0,0,0,0,-5.2187,-5.2192,-5.2415,-5.2415,-5.2416,-5.2474,-5.2474,-5.2475,-5.2342,-5.2337,-5.2331,-5.2327,-5.2388,-5.2395,-5.2402,0,0,0,0,0,0,0,0,0,0,0,0,0,-5.227,-5.2194,-5.2415,-5.2357,-5.2352,-5.2473,-5.2474,-5.2475,-5.2343,-5.2337,-5.233,-5.2324,-5.2386,-5.2394,-5.2403,-5.2584,0,0,-5.2429,-5.2432,0,0,0,0,0,0,0,0,-5.2266,-5.2279,-5.2364,-5.2361,-5.2356,-5.2393,-5.2417,-5.2512,-5.2345,-5.2346,-5.2328,-5.2321,-5.2397,-5.2404,-5.2429,-5.2587,-5.2589,-5.2429,-5.2434,-5.2438,-5.2441,0,0,0,0,0,0,0,-5.226,-5.2276,-5.2438,-5.2366,-5.2361,-5.2328,-5.2332,-5.2434,-5.2407,-5.2346,-5.2336,-5.2345,-5.2393,-5.2421,-5.2429,-5.259,-5.2429,-5.2437,-5.2442,-5.2445,-5.2897,-5.2904,0,0,0,0,0,0,-5.2262,-5.2272,-5.2436,-5.244,-5.2294,-5.2337,-5.2342,-5.2388,-5.2405,-5.2402,-5.235,-5.2338,-5.241,-5.242,-5.2431,-5.2642,-5.2438,-5.2446,-5.2451,-5.289,-5.2899,-5.2906,0,0,0,0,0,0,-5.2257,-5.2278,-5.2434,-5.2353,-5.2371,-5.2348,-5.24,-5.2392,-5.242,-5.2409,-5.2403,-5.2384,-5.2405,-5.2419,-5.2546,-5.2642,-5.245,-5.2457,-5.2882,-5.2893,-5.2902,-5.3067,0,0,0,0,0,0,-5.2252,-5.2277,-5.2345,-5.2356,-5.2375,-5.2548,-5.2406,-5.2398,-5.2435,-5.242,-5.2439,-5.2436,-5.2401,-5.2534,-5.2555,-5.265,-5.2464,-5.2873,-5.2887,-5.2899,-5.3052,-5.3081,-5.3106,0,0,0,0,0,-5.2244,-5.239,-5.2349,-5.237,-5.246,-5.2554,-5.2565,-5.2522,-5.2444,-5.2512,-5.2504,-5.2435,-5.2629,-5.2548,-5.257,-5.267,-5.2867,-5.2883,-5.2898,-5.304,-5.3076,-5.3105,0,0,0,0,0,0,-5.2392,-5.239,-5.2345,-5.2499,-5.2528,-5.2531,-5.2616,-5.2561,-5.2612,-5.2596,-5.2541,-5.2546,-5.2683,-5.269,-5.26,-5.2845,-5.2735,-5.2756,-5.2835,-5.2869,-5.2895,-5.2889,-5.2471,0,0,0,0,0,-5.2442,-5.2518,-5.2513,-5.2649,-5.2666,-5.2639,-5.2678,-5.2642,-5.267,-5.2681,-5.2683,-5.2713,-5.2779,-5.2825,-5.2887,-5.3054,-5.3055,-5.3133,-5.316,-5.3182,-5.32,-5.3287,-5.3321,-5.2957,-5.2957,-5.2957,0,0,-5.2547,-5.2556,-5.2607,-5.2679,-5.2697,-5.2776,-5.265,-5.274,-5.2798,-5.2695,-5.2813,-5.2817,-5.2846,-5.2994,-5.3059,-5.3003,-5.3301,-5.3202,-5.322,-5.3225,-5.3306,-5.3341,-5.3371,-5.2968,-5.2966,-5.2964,0,0,-5.2778,-5.2794,-5.2907,-5.2928,-5.2956,-5.2937,-5.2965,-5.2978,-5.2975,-5.3094,-5.3017,-5.3087,-5.3204,-5.3227,-5.3255,-5.3496,-5.3434,-5.3518,-5.3657,-5.3742,-5.3771,-5.3796,-5.3879,-5.391,-5.3536,-5.3537,-5.3537,0,-5.2905,-5.3021,-5.2973,-5.3068,-5.3101,-5.3012,-5.3126,-5.3149,-5.3196,-5.3221,-5.3159,-5.3303,-5.3317,-5.3467,-5.3526,-5.3553,-5.3581,-5.3514,-5.377,-5.3795,-5.3818,-5.3897,-5.3929,-5.3546,-5.3545,-5.3544,-5.3543,0,-5.3175,-5.3257,-5.3346,-5.3392,-5.3436,-5.3541,-5.3508,-5.3558,-5.352,-5.3508,-5.3629,-5.3643,-5.3704,-5.3738,-5.3702,-5.3884,-5.3848,-5.378,-5.3667,-5.3863,-5.3936,-5.3966,-5.356,-5.3557,-5.3554,-5.3551,0,0,-5.3498,-5.3518,-5.3551,-5.357,-5.3595,-5.3658,-5.3759,-5.3818,-5.3861,-5.3898,-5.398,-5.4082,-5.4018,-5.4049,-5.4015,-5.409,-5.4277,-5.4012,-5.4011,-5.4058,-5.4477,-5.4526,-5.4562,-5.4238,-5.4243,-5.4248,-5.4473,0,-5.3724,-5.3896,-5.3855,-5.4025,-5.4099,-5.4016,-5.4103,-5.4128,-5.412,-5.4182,-5.4174,-5.4245,-5.4157,-5.4175,-5.4246,-5.424,-5.436,-5.4223,-5.4312,-5.4316,-5.4304,-5.4601,-5.4653,-5.4865,-5.4502,-5.4507,-5.451,0,-5.401,-5.4057,-5.4233,-5.4245,-5.4275,-5.4354,-5.4405,-5.4466,-5.4493,-5.4482,-5.4517,-5.4468,-5.4567,-5.4456,-5.4591,-5.4499,-5.4533,-5.4536,-5.4543,-5.4547,-5.4423,-5.461,-5.4932,-5.4963,-5.4555,-5.4552,-5.4548,0,-5.4225,-5.4332,-5.4451,-5.4471,-5.4489,-5.4546,-5.4556,-5.4576,-5.4615,-5.466,-5.4684,-5.4742,-5.4772,-5.4818,-5.4785,-5.4707,-5.4925,-5.4812,-5.4917,-5.4918,-5.4964,-5.4961,-5.5294,-5.4992,-5.4992,-5.4991,-5.499,0,-5.448,-5.459,-5.4547,-5.462,-5.4741,-5.4695,-5.4816,-5.4817,-5.4836,-5.4908,-5.4841,-5.4909,-5.4863,-5.4928,-5.4904,-5.5018,-5.5034,-5.5027,-5.5018,-5.5031,-5.5032,-5.505,-5.5034,-5.4999,-5.4998,-5.4996,-5.4995,0,-5.4739,-5.4714,-5.4838,-5.4845,-5.4849,-5.4938,-5.4944,-5.5012,-5.4999,-5.509,-5.5109,-5.509,-5.5163,-5.5136,-5.5214,-5.5197,-5.5343,-5.5317,-5.5333,-5.5326,-5.5432,-5.5421,-5.5785,-5.583,-5.5503,-5.5506,-5.5509,0,-5.4901,-5.4984,-5.5,-5.5042,-5.5057,-5.5127,-5.5166,-5.5124,-5.5167,-5.5204,-5.5267,-5.5334,-5.5385,-5.5506,-5.5499,-5.5558,-5.5531,-5.5655,-5.5539,-5.5549,-5.5529,-5.5524,-5.5531,-5.5677,-5.5681,-5.5684,-5.5686,0,-5.5191,-5.5175,-5.5232,-5.5287,-5.5334,-5.5375,-5.541,-5.5449,-5.5409,-5.5461,-5.5534,-5.5574,-5.5654,-5.5721,-5.5774,-5.5784,-5.5729,-5.5723,-5.575,-5.5762,-5.5767,-5.5763,-5.5393,-5.5714,-5.5711,-5.5709,-5.5708,-5.5707,-5.5404,-5.5473,-5.5495,-5.5561,-5.5583,-5.5617,-5.5681,-5.5676,-5.5737,-5.5797,-5.577,-5.5854,-5.5879,-5.5944,-5.5963,-5.6029,-5.598,-5.6021,-5.603,-5.604,-5.6052,-5.576,-5.6039,-5.6038,-5.6037,-5.6036,-5.6036,0,-5.5688,-5.5698,-5.576,-5.581,-5.5863,-5.5807,-5.5842,-5.589,-5.5965,-5.5993,-5.6044,-5.6128,-5.6193,-5.6192,-5.6252,-5.6305,-5.6281,-5.6322,-5.6316,-5.6319,-5.6093,-5.6062,-5.634,-5.634,-5.634,-5.634,-5.634,-5.634,-5.5841,-5.5954,-5.5941,-5.6065,-5.6074,-5.6156,-5.6181,-5.6212,-5.6234,-5.633,-5.6384,-5.6383,-5.6399,-5.6459,-5.6516,-5.6514,-5.6538,-5.6589,-5.6577,-5.6365,-5.6335,-5.6306,-5.6277,-5.6595,-5.6595,-5.6797,-5.6799,-5.68]},{"header":{"parameterUnit":"m.s-1","parameterCategory":1,"la1":30.2991,"la2":30.254,"lo1":-89.0895,"lo2":-89.0444,"dy":0.0017,"dx":0.0017,"nx":28,"ny":28,"refTime":"2025-08-29T09:00:00:Z","depth":0,"parameterNumber":3,"parameterNumberName":"V-component_of_WINDS"},"data":[0,0,0,0,0,0,0,0,0,0,0,0,0,0,0,0,0,0,0,0,0,0,0,0,0,0,0,0,0,0,0,0,0,0,0,0,0,0,0,0,0,0,0,0,0,0,0,0,0,0,0,0,0,0,0,0,0,0,1.239,1.239,0,1.2347,1.2347,1.2346,1.2302,1.2301,1.23,1.23,1.2252,1.2251,1.225,0,0,0,0,0,0,0,0,0,0,0,0,0,1.2432,1.2431,1.2391,1.239,1.2389,1.2347,1.2347,1.2346,1.2302,1.2301,1.23,1.23,1.2252,1.2251,1.225,0,0,0,0,0,0,0,0,0,0,0,0,0,1.2404,1.2431,1.2391,1.2362,1.2359,1.2347,1.2347,1.2346,1.2302,1.2301,1.23,1.2299,1.2252,1.2251,1.225,1.2261,0,0,1.2247,1.2246,0,0,0,0,0,0,0,0,1.2405,1.2402,1.2367,1.2364,1.2361,1.2329,1.2344,1.2317,1.2302,1.2324,1.23,1.2299,1.2278,1.2275,1.2268,1.2259,1.2257,1.2247,1.2246,1.2246,1.2245,0,0,0,0,0,0,0,1.2407,1.2404,1.2373,1.2367,1.2363,1.2351,1.2346,1.2338,1.2306,1.2322,1.2318,1.2314,1.2276,1.227,1.2267,1.2256,1.2247,1.2246,1.2245,1.2245,1.2254,1.2255,0,0,0,0,0,0,1.2414,1.2406,1.2375,1.2372,1.2382,1.2351,1.2345,1.234,1.2306,1.23,1.2315,1.2312,1.2272,1.2268,1.2265,1.2276,1.2246,1.2245,1.2244,1.2253,1.2255,1.2256,0,0,0,0,0,0,1.2415,1.2412,1.2376,1.2388,1.2383,1.2351,1.2346,1.234,1.2333,1.2301,1.2295,1.2314,1.2271,1.2267,1.2263,1.2274,1.2244,1.2243,1.2252,1.2254,1.2255,1.2299,0,0,0,0,0,0,1.2417,1.2412,1.2417,1.2388,1.2382,1.2376,1.2346,1.2339,1.2332,1.2328,1.2299,1.2293,1.227,1.2265,1.2262,1.2272,1.2242,1.2251,1.2253,1.2255,1.2297,1.2302,1.2306,0,0,0,0,0,1.2418,1.243,1.2418,1.2414,1.2388,1.2377,1.2373,1.2347,1.2333,1.2337,1.2316,1.2294,1.2273,1.2265,1.2261,1.2271,1.225,1.2253,1.2255,1.2294,1.2301,1.2306,0,0,0,0,0,0,1.246,1.2426,1.2412,1.2415,1.2399,1.2369,1.2374,1.2355,1.2342,1.2339,1.2306,1.23,1.23,1.2285,1.2276,1.228,1.2259,1.226,1.229,1.2296,1.2301,1.2305,1.2241,0,0,0,0,0,1.247,1.2465,1.2435,1.2441,1.2434,1.2406,1.24,1.2381,1.2363,1.2356,1.2335,1.2317,1.2307,1.2301,1.2289,1.2294,1.2287,1.2299,1.2304,1.2308,1.231,1.2312,1.2317,1.2262,1.2262,1.2262,0,0,1.249,1.247,1.2469,1.2449,1.2435,1.243,1.24,1.2396,1.2392,1.2355,1.2351,1.2335,1.2313,1.2314,1.2313,1.2301,1.2323,1.2311,1.2314,1.2314,1.2314,1.232,1.2324,1.2264,1.2263,1.2263,0,0,1.2523,1.2509,1.2512,1.2499,1.2478,1.2459,1.246,1.2433,1.2421,1.2417,1.2389,1.2383,1.2366,1.2351,1.2342,1.2371,1.235,1.2368,1.2393,1.2396,1.24,1.2404,1.2414,1.2419,1.2369,1.2369,1.2369,0,1.255,1.2543,1.2516,1.2514,1.2506,1.2474,1.2477,1.2464,1.244,1.2435,1.2423,1.2401,1.2383,1.2381,1.2388,1.2381,1.2381,1.2371,1.2402,1.2405,1.2408,1.2418,1.2422,1.2372,1.2371,1.2371,1.2371,0,1.2577,1.2573,1.2578,1.2557,1.2549,1.255,1.2522,1.2517,1.25,1.2482,1.2477,1.2456,1.244,1.2438,1.2419,1.2432,1.2426,1.2408,1.2386,1.2416,1.2425,1.2428,1.2375,1.2374,1.2374,1.2373,0,0,1.2636,1.2601,1.2604,1.2594,1.2569,1.2564,1.2563,1.2548,1.2545,1.2529,1.2527,1.2514,1.2497,1.2486,1.2466,1.2468,1.2493,1.245,1.2449,1.2459,1.2507,1.2521,1.2526,1.2479,1.248,1.248,1.2509,0,1.2666,1.2664,1.264,1.2643,1.2639,1.2608,1.2607,1.2591,1.2574,1.2566,1.2547,1.2538,1.2517,1.251,1.2511,1.249,1.2502,1.2488,1.2476,1.2476,1.2484,1.253,1.2545,1.2573,1.2512,1.2512,1.2513,0,1.2701,1.2689,1.2693,1.2668,1.2665,1.2665,1.265,1.2644,1.2624,1.2612,1.2601,1.2578,1.2574,1.2553,1.2547,1.2538,1.2532,1.2521,1.2521,1.252,1.2497,1.253,1.2581,1.2586,1.2518,1.2517,1.2517,0,1.2745,1.2729,1.273,1.2722,1.2693,1.2694,1.2682,1.2662,1.2655,1.2641,1.2636,1.2622,1.2614,1.2603,1.2577,1.2564,1.2574,1.2551,1.2563,1.2564,1.2567,1.2568,1.2619,1.2562,1.2562,1.2562,1.2562,0,1.2781,1.2785,1.2749,1.275,1.2753,1.2724,1.2728,1.2712,1.2695,1.2691,1.2663,1.266,1.2626,1.2618,1.2598,1.2596,1.2593,1.2582,1.2577,1.2585,1.2587,1.2581,1.2579,1.2563,1.2563,1.2563,1.2563,0,1.2831,1.2807,1.2806,1.2779,1.2772,1.2775,1.2752,1.275,1.2732,1.2728,1.2725,1.2695,1.2685,1.2659,1.2641,1.2627,1.2632,1.2621,1.2639,1.2635,1.265,1.2649,1.27,1.2705,1.2645,1.2646,1.2646,0,1.2856,1.2858,1.2832,1.2828,1.2817,1.2811,1.2804,1.2776,1.277,1.2748,1.275,1.2738,1.2727,1.2712,1.2689,1.2675,1.2664,1.2683,1.2662,1.2671,1.2665,1.2666,1.2666,1.2688,1.2689,1.2689,1.269,0,1.2903,1.2892,1.2883,1.2871,1.2864,1.2853,1.284,1.2838,1.2806,1.28,1.2791,1.2782,1.2765,1.2754,1.2737,1.2723,1.2701,1.2697,1.2699,1.2708,1.2719,1.2714,1.2652,1.2696,1.2695,1.2695,1.2694,1.2694,1.2942,1.2943,1.2925,1.2916,1.2904,1.2893,1.2891,1.2872,1.2864,1.2849,1.2832,1.2825,1.2805,1.278,1.2768,1.276,1.2749,1.2752,1.2753,1.2755,1.2759,1.2719,1.2757,1.2757,1.2757,1.2756,1.2756,0,1.2988,1.2975,1.2968,1.2952,1.2945,1.2926,1.2911,1.2907,1.2901,1.2885,1.2875,1.2864,1.2852,1.2828,1.2815,1.2814,1.2803,1.2811,1.2811,1.2808,1.2769,1.2769,1.282,1.282,1.282,1.282,1.282,1.2819,1.3012,1.3013,1.2999,1.2994,1.298,1.2973,1.2966,1.2955,1.2943,1.2932,1.2923,1.2908,1.2889,1.2873,1.2862,1.2855,1.2851,1.2863,1.2853,1.2817,1.2811,1.2805,1.2805,1.2862,1.2862,1.2892,1.2892,1.2893]}]]